Home > Weather > Granby > Past weeks

Flag for Canada Weather for the Past 2 Weeks in Granby, Quebec, Canada

Now
16 °F

Cold.


Feels Like: 9 °F
Forecast: 17 / 24 °F
Wind: 5 mph from Southeast

Location: Frelighsburg

Current Time: Feb 9, 2016 at 7:44:38 AM

Latest Report: Feb 9, 2016 at 7:00 AM


Visibility: N/A

Pressure: 29.69 "Hg

Humidity: 82%

Dew point: 11 °F

Location of GranbyLocation

Historic Weather in Granby — Graph

°F

Granby Temperature Yesterday

Maximum temperature yesterday: 26 °F (at 1:00 PM)
Minimum temperature yesterday: 18 °F (at 11:00 PM)
Average temperature yesterday: 22 °F

High & Low Weather Summary for the Past Weeks

 TemperatureHumidityPressure
High50 °F (Feb 4, 12:00 AM)99% (Jan 29, 7:00 PM)30.40 "Hg (Jan 29, 7:00 PM)
Low15 °F (Jan 27, 10:00 PM)27% (Feb 8, 2:00 PM)29.41 "Hg (Feb 1, 5:00 AM)
Average30 °F72%29.92 "Hg
* Reported Jan 25 6:00 AM — Feb 9 6:00 AM, Granby, Weather by CustomWeather, © 2016

Note: Actual official high and low records may vary slightly from our data, if they occured in-between our weather recording intervals... More about our weather records

Advertising

Granby Weather History for the Previous 24 Hours

 ConditionsComfort  
Time TempWeatherWind HumidityBarometerVisibility
6:00 AM
Tue, Feb 9
16 °FCold.5 mph83%29.70 "HgN/A
5:00 AM16 °FCold.3 mph86%29.71 "HgN/A
4:00 AM16 °FCold.3 mph94%29.72 "HgN/A
3:00 AM17 °FCold.2 mph92%29.74 "HgN/A
2:00 AM17 °FCold.6 mph80%29.76 "HgN/A
1:00 AM18 °FCold.5 mph79%29.77 "HgN/A
12:00 AM17 °FCold.2 mph85%29.78 "HgN/A
11:00 PM
Mon, Feb 8
18 °FCold.3 mph81%29.79 "HgN/A
10:00 PM19 °FCold.5 mph72%29.82 "HgN/A
9:00 PM21 °FCold.5 mph47%29.84 "HgN/A
8:00 PM21 °FCold.3 mph47%29.84 "HgN/A
7:00 PM21 °FCold.8 mph46%29.84 "HgN/A
6:00 PM21 °FCold.8 mph45%29.85 "HgN/A
5:00 PM23 °FCold.9 mph35%29.84 "HgN/A
4:00 PM25 °FCold.6 mph30%29.84 "HgN/A
3:00 PM26 °FChilly.7 mph29%29.83 "HgN/A
2:00 PM26 °FChilly.8 mph27%29.84 "HgN/A
1:00 PM26 °FChilly.6 mph28%29.86 "HgN/A
12:00 PM26 °FChilly.5 mph32%29.89 "HgN/A
11:00 AM25 °FCold.5 mph42%29.91 "HgN/A
10:00 AM23 °FCold.7 mph47%29.93 "HgN/A
9:00 AM22 °FCold.8 mph55%29.94 "HgN/A
8:00 AM21 °FCold.1 mph70%29.93 "HgN/A
7:00 AM22 °FCold.2 mph74%29.93 "HgN/A
Weather by CustomWeather, © 2016

See weather overviewHow to use our weather pages